JCSAT-2B

Last updated on Mon Nov 03 2025 00:02:58 GMT+0000 (Coordinated Universal Time)

1 41471U 16028A 25306.36780918 .00000000 00000+0 00000+0 0 9990 2 41471 0.0153 250.6925 0001233 344.1425 93.4535 1.00267718 34849
UTC large
Height (km)
Speed (km/s)
/
Latitude / Longitude
Inclination (degrees)
Orbital Period (minutes)
Azimuth
Elevation
Range (km)
Doppler Factor

Next 0 passes for location: London (51.5072 / 0.1276)

Sorry there are no passes over London.